Regional Weather Roundup
Issued by NWS

Home | Current Version | Previous Version | Graphics & Text | Print | Product List | Glossary On
Versions: 1 2 3 4 5 6 7 8 9 10 11 12 13 14 15 16 17 18 19 20 21 22 23 24 25 26 27 28 29 30 31 32 33 34 35 36 37 38 39 40 41 42 43 44 45 46 47 48 49 50
249
ASUS43 KTOP 010759
RWRKS

WEATHER ROUNDUP FOR KANSAS
NATIONAL WEATHER SERVICE GOODLAND KS
300 AM CDT SAT OCT 01 2016

NOTE:  "FAIR" INDICATES FEW OR NO CLOUDS BELOW 12,000 FEET WITH NO
SIGNIFICANT WEATHER AND/OR OBSTRUCTIONS TO VISIBILITY.

KSZ001>006-013>018-027>032-041>047-010900-
NORTHWEST KANSAS

CITY           SKY/WX    TMP DP  RH WIND       PRES   REMARKS
GOODLAND       PTCLDY    55  45  68 S12       30.13S
HAYS           CLOUDY    54  39  58 CALM      30.15S
HILL CITY      CLOUDY    49  46  90 CALM      30.15S
RUSSELL        PTCLDY    53  47  79 S5        30.13S
$$

KSZ061>065-074>080-084>089-010900-
SOUTHWEST KANSAS

CITY           SKY/WX    TMP DP  RH WIND       PRES   REMARKS
DODGE CITY     CLOUDY    58  47  66 S10       30.14S
ELKHART          N/A     54  45  72 S9          N/A
GARDEN CITY    PTCLDY    56  45  66 SE12      30.11F
GREAT BEND     PTCLDY    54  43  66 CALM      30.14F
LIBERAL        PTCLDY    59  46  63 SE9       30.11S
$$

KSZ066>073-081>083-090>101-010900-
SOUTHEAST KANSAS

CITY           SKY/WX    TMP DP  RH WIND       PRES   REMARKS
CHANUTE        MOCLDY    53  51  93 CALM      30.12S
COFFEYVILLE    MOCLDY    53  52  96 N3        30.11F
HUTCHINSON     PTCLDY    51  49  92 CALM      30.14S
MEDICINE LODGE   N/A     56  51  84 CALM      30.13S
NEWTON         CLOUDY    56  49  77 E5        30.15R
PARSONS        MOCLDY    50  49  96 CALM      30.12F
WICHITA INTL   PTCLDY    54  50  86 CALM      30.13S
WICHITA JABRA  PTCLDY    53  51  93 CALM      30.13S
WICHITA MCCONL PTCLDY    57  48  71 E2        30.13S
WINFIELD       PTCLDY    53  51  93 CALM      30.14S
$$

KSZ007>012-019>026-033>040-048>060-102>105-010900-
NORTHEAST KANSAS

CITY           SKY/WX    TMP DP  RH WIND       PRES   REMARKS
CONCORDIA      PTCLDY    50  49  96 NE6       30.15R
EMPORIA        MOCLDY    52  51  97 N5        30.13S
LAWRENCE       PTCLDY    49  49 100 NW6       30.13F
MANHATTAN      MOCLDY    50  48  93 CALM      30.13F
OLATHE IND     CLEAR     53  51  93 CALM      30.13F
OLATHE EXE     CLEAR     53  51  93 CALM      30.12F
SALINA         CLEAR     54  49  83 CALM      30.14S
TOPEKA BILLARD PTCLDY    53  50  89 CALM      30.14S
TOPEKA FORBES  PTCLDY    53  50  89 CALM      30.14R
$$




USA.gov is the U.S. government's official web portal to all federal, state and local government web resources and services.